Weather in Atyashevo

Russia / Republic of Mordovia     55°09′44″N   45°39′59″E
temp.,
°C
wind,
m/s
gust,
m/s
humid.,
%
clouds,
%
prec.,
mm/h
press.,
hPa
HPBL,
m
19 january, wed
wed1900:00−2wnw4698100 1.3 1008332
03:00−6nnw4796100 2.2 1011275
06:00−8nnw4696100 1.0 1012267
09:00−9nnw3596100 1.5 1014208
12:00−11nnw259599 0.2 1014153
15:00−15wnw229821 0.2 101615
18:00−20w1110063 0.0 10179
21:00−20sw2210050 0.0 101813
20 january, thu
thu2000:00−20sw2210057 0.0 101817
03:00−18ssw359944 0.0 101855
06:00−19ssw3510091 0.0 101760
09:00−14ssw41297100 0.0 1017223
12:00−11ssw61493100 0.0 1016335
15:00−11ssw6139157 0.0 1016320
18:00−12s614916 0.0 1016283
21:00−13ssw615915 0.0 1016292
21 january, fri
fri2100:00−14s6159218 0.0 1016271
03:00−15s5159354 0.0 1016260
06:00−15s5159383 0.0 1016264
09:00−16s51494100 0.0 1016245
12:00−11sse6169162 0.0 1016367
15:00−10se6158958 0.0 1015405
18:00−10se7169151 0.0 1014399
21:00−11se71690100 0.0 1014413
22 january, sat
sat2200:00−10se71789100 0.0 1013468
03:00−8se71594100 1.1 1013570
06:00−8sse61294100 0.7 1014467
09:00−8se599496 0.9 1016319
12:00−8sse369572 0.1 1018262
15:00−10se259758 0.1 101962
18:00−15se2210098 0.0 10219
21:00−16se22100100 0.0 10229
23 january, sun
sun2300:00−16e11100100 0.0 10239
03:00−10ne2297100 0.1 102368
06:00−8nne2396100 0.9 1023110
09:00−8n1296100 1.7 102569
12:00−8wnw129678 0.1 102665
15:00−11wnw1197100 0.1 102810
18:00−13wnw1197100 0.0 10319
21:00−13n1197100 0.0 10329